Regional Weather Roundup
Issued by NWS

Home | Current Version | Previous Version | Graphics & Text | Print | Product List | Glossary On
Versions: 1 2 3 4 5 6 7 8 9 10 11 12 13 14 15 16 17 18 19 20 21 22 23 24 25 26 27 28 29 30 31 32 33 34 35 36 37 38 39 40 41 42 43 44 45 46 47 48 49 50
000
ASUS43 KMPX 011201
RWRMN
WEATHER ROUNDUP FOR MINNESOTA
NATIONAL WEATHER SERVICE TWIN CITIES/CHANHASSEN MN
700 AM CDT TUE SEP 01 2015


NOTE: "FAIR" INDICATES FEW OR NO CLOUDS BELOW 12,000 FEET WITH NO
SIGNIFICANT WEATHER AND/OR OBSTRUCTIONS TO VISIBILITY. N/A MEANS
CURRENT SKY AND/OR WEATHER CONDITIONS ARE NOT AVAILABLE.

MNZ060>063-068>070-011300-
   Twin Cities Metro

CITY           SKY/WX    TMP DP  RH WIND       PRES   REMARKS
TWIN CITIES    CLOUDY    70  66  87 SE6       29.92S FOG
6HR MIN TEMP:  69; 6HR MAX TEMP:  76;

ST PAUL        MOCLDY    68  67  96 SE3       29.93R FOG
CRYSTAL        MOCLDY    72  67  84 S5        29.90S
BLAINE         MOCLDY    72  70  94 S5        29.91S
LAKEVILLE      CLOUDY    64  64 100 CALM      29.93S FOG
EDEN PRAIRIE   CLOUDY    70  66  87 S6        29.91S
6HR MIN TEMP:  70; 6HR MAX TEMP:  72;

SOUTH ST PAUL  PTCLDY    68  67  94 CALM      29.93R FOG
LAKE ELMO      MOCLDY    66  66 100 S3        29.94S FOG
$$
MNZ001>005-007-008-013>017-022>024-027-028-011300-
   Northwest Minnesota

CITY           SKY/WX    TMP DP  RH WIND       PRES   REMARKS
BEMIDJI        FOG       49  49 100 CALM      29.91S VSB<1/4
HALLOCK        CLEAR     50  46  87 SE7       29.85S
ROSEAU         PTCLDY    52  46  82 S5        29.87S
WARROAD        PTCLDY    54  50  87 S7        29.88S
THIEF RVR FALL PTCLDY   N/A N/A N/A SE5       29.88S
CROOKSTON      PTCLDY    54  52  94 S5        29.88F
FOSSTON          N/A     54  52  94 CALM      29.91S FOG
DETROIT LAKES  FOG       59  59 100 CALM      29.92S VSB<1/4
MOORHEAD       MOCLDY    55  55 100 CALM      29.90S FOG
PARK RAPIDS    FOG       57  55  93 NW3       29.91F VSB 1/4
MAHNOMEN       FAIR      56  55  97 SE3       29.90S
$$
MNZ006-009>011-018-025>026-011300-
   North Central Minnesota

CITY           SKY/WX    TMP DP  RH WIND       PRES   REMARKS
BAUDETTE       PTCLDY    51  49  92 CALM      29.87S
FLAG ISLAND    PTCLDY    61  52  72 SW10      29.84S
INTL FALLS     FOG       52  51  97 CALM      29.89R VSB 1/4
6HR MIN TEMP:  48; 6HR MAX TEMP:  64;

WASKISH        FOG       52  52 100 CALM      29.90S VSB 1/2
BIG FORK       FOG       54  52  94 CALM      29.91S VSB 1/4
LONGVILLE      CLOUDY    57  57 100 CALM      29.92R FOG
GRAND RAPIDS     N/A     61  57  88 CALM      29.92S VSB<1/4
CRANE LAKE     MOCLDY    54  54 100 CALM      29.91S
COOK           CLOUDY    57  57 100 CALM      29.92R FOG
WALKER         FOG       57  57  99 CALM      29.91S VSB 1/2
$$
MNZ012-019>021-037-011300-
   Northeast Minnesota

CITY           SKY/WX    TMP DP  RH WIND       PRES   REMARKS
DULUTH         MOCLDY    68  66  93 SW3       29.91R FOG
6HR MIN TEMP:  67; 6HR MAX TEMP:  72; 6HR PCP: TRACE;

ELY            FOG       63  61  94 CALM      29.91S VSB<1/4
HIBBING        FOG       59  58  96 CALM      29.91S VSB 1/4
EVELETH        FOG       61  61 100 CALM      29.92S VSB<1/4
DULUTH HARBOR  CLOUDY    72  70  94 SW5       29.89R
TWO HARBORS    CLOUDY    72  66  83 CALM      29.88S HAZE
SILVER BAY     CLOUDY    68  66  94 CALM      29.88S FOG
GRAND MARAIS     N/A     59  58  96 CALM      29.87R
G MARAIS ARPRT FOG       64  63  94 CALM      29.93S VSB 3/4
$$
MNZ029>031-032-039>041-046>048-054>057-064-011300-
   West Central Minnesota

CITY           SKY/WX    TMP DP  RH WIND       PRES   REMARKS
FERGUS FALLS   MOCLDY    64  64 100 CALM      29.90R
WHEATON        CLOUDY    57  57 100 CALM      29.92S FOG
MORRIS         CLOUDY    66  64  94 CALM      29.90S FOG
ALEXANDRIA     CLOUDY    67  64  90 NE5       29.93S
ELBOW LAKE     FAIR      66  65  96 CALM      29.91S
WADENA         FOG       59  59 100 CALM      29.92S VSB<1/4
GLENWOOD       CLOUDY    68  64  88 N6        29.93R
APPLETON       CLOUDY    70  66  88 CALM      29.89S FOG
BENSON         CLOUDY    66  64  94 E3        29.90S FOG
ORTONVILLE     CLOUDY    68  64  88 NE7       29.89F
MADISON        CLOUDY    66  64  94 CALM      29.90R FOG
WILLMAR        FAIR      68  68 100 CALM      29.92S FOG
$$
MNZ033>034-036-042>043-049>051-058-059-011300-
   Central Minnesota

CITY           SKY/WX    TMP DP  RH WIND       PRES   REMARKS
ST CLOUD       CLOUDY    68  67  96 CALM      29.91R FOG
6HR MIN TEMP:  67; 6HR MAX TEMP:  70;

SAUK CENTRE    FAIR      67  65  95 CALM      29.92S
PAYNESVILLE    CLOUDY    67  66  98 CALM      29.93R FOG
AITKIN         HAZE      63  55  77 CALM      29.91S VSB<1/4
PINE RIVER     FOG       57  57 100 CALM      29.95S VSB<1/4
BRAINERD       CLOUDY    65  65 100 CALM      29.92S FOG
STAPLES        FOG       61  61 100 CALM      29.92R VSB 3/4
LONG PRAIRIE   FAIR      64  63  94 CALM      29.93S
LITTLE FALLS   CLOUDY    66  64  94 CALM      29.92R
LITCHFIELD     MOCLDY    68  68 100 CALM      29.93R FOG
BUFFALO        MOCLDY    69  65  88 CALM      29.93R
MAPLE LAKE     MOCLDY    68  67  96 CALM      29.93R FOG
$$
MNZ037-044-045-052-053-011300-
   East Central Minnesota

CITY           SKY/WX    TMP DP  RH WIND       PRES   REMARKS
PRINCETON      MOCLDY    70  66  88 CALM      29.91S FOG
MORA           CLOUDY    66  64  94 CALM      29.92F FOG
CAMBRIDGE      MOCLDY   N/A N/A N/A CALM      29.90R HAZE
RUSH CITY      MOCLDY    69  67  94 CALM      29.91S
MOOSE LAKE     FOG       66  64  94 CALM      29.89S VSB<1/4
HINCKLEY       PTSUNNY   68  68 100 CALM      29.91S FOG
CLOQUET        MOCLDY    66  64  94 CALM      29.92R FOG
MCGREGOR         N/A     63  63 100 CALM      29.92R VSB 1/4
$$
MNZ071>073-080-081-089-090-097-098-011300-
   Southwest Minnesota

CITY           SKY/WX    TMP DP  RH WIND       PRES   REMARKS
MONTEVIDEO     CLOUDY    66  64  94 CALM      29.91S FOG
GRANITE FALLS  CLOUDY    67  66  99 SE3       29.91S
CANBY          CLOUDY    67  65  91 CALM      29.91R
MARSHALL       CLOUDY    68  64  88 CALM      29.91F
REDWOOD FALLS  MOCLDY    66  65  96 S6        29.91R FOG
OLIVIA         CLOUDY    66  63  88 CALM      29.89F FOG
PIPESTONE      CLOUDY    66  64  94 SE5       29.91S FOG
WINDOM         FAIR      64  63  94 CALM      29.92F FOG
WORTHINGTON    MOCLDY    64  61  88 CALM      29.92S
JACKSON        PTCLDY    66  64  94 S3        29.93F FOG
TRACY          MOCLDY    68  66  93 NE5       29.91R FOG
SLAYTON        MOCLDY    64  64 100 CALM      29.93S FOG
$$
MNZ065>067-074>077-082>085-091>093-011300-
   South Central Minnesota

CITY           SKY/WX    TMP DP  RH WIND       PRES   REMARKS
MANKATO        CLEAR     66  63  88 S3        29.93R
NEW ULM        PTCLDY    64  64 100 SE3       29.91F FOG
ST JAMES       PTCLDY    64  64 100 SE5       29.92S FOG
FAIRMONT       CLEAR     63  57  82 S3        29.93R
GLENCOE        PTCLDY    67  66  97 CALM      29.92R
FARIBAULT      FOG       63  63 100 CALM      29.94R VSB 1/4
OWATONNA       CLEAR     70  66  88 SE6       29.94S FOG
WASECA         CLEAR     63  61  94 CALM      29.95R FOG
ALBERT LEA     PTCLDY    68  66  94 S5        29.95S FOG
$$
MNZ078>079-086>088-094>096-011300-
   Southeast Minnesota

CITY           SKY/WX    TMP DP  RH WIND       PRES   REMARKS
ROCHESTER      FOG       67  66  97 S7        29.97S VSB<1/4
6HR MIN TEMP:  65; 6HR MAX TEMP:  71;

RED WING       PTCLDY    70  66  88 SE5       29.92S FOG
STANTON        CLEAR     67  64  91 CALM      29.93R FOG
DODGE CENTER   FOG       66  64  94 SE6       29.96S VSB<1/4
WINONA         PTCLDY    70  68  94 CALM      29.96R FOG
AUSTIN           N/A     70  68  94 S5        29.96S FOG
PRESTON        FOG       66  65  96 S5        29.99R VSB 3/4
$$
ABBREVIATIONS USED IN REMARKS
   TC - TEMPERATURES IN CELSIUS
  WCI - WIND CHILL INDEX
   HX - HEAT INDEX
  VSB - VISIBILITY
$$



USA.gov is the U.S. government's official web portal to all federal, state and local government web resources and services.